This is the latest recevied weather packets stored in our database for station/object W7OG-10. If no packets are shown the sender has not sent any weather packets the latest 10 day(s).
| Time | Temp. | Humidity | Pressure | Rain* | Wind** | Luminosity | Snow |
|---|---|---|---|---|---|---|---|
| 1777555738 | 22.78° C | 100% | 1022.4 hPa | 0 mm | - | - | - |
| 1777553318 | 22.78° C | 100% | 1022.4 hPa | 0 mm | - | - | - |
| 1777552117 | 22.78° C | 100% | 1022.4 hPa | 0 mm | - | - | - |
| 1777546718 | 22.78° C | 100% | 1022.4 hPa | 0 mm | - | - | - |
| 1777541918 | 22.78° C | 100% | 1022.4 hPa | 0 mm | - | - | - |
| 1777541319 | 22.78° C | 100% | 1022.4 hPa | 0 mm | - | - | - |
| 1777538918 | 23.33° C | 100% | 1022.5 hPa | 0 mm | - | - | - |
| 1777535919 | 23.33° C | 99% | 1022.5 hPa | 0 mm | - | - | - |
| 1777534119 | 23.89° C | 99% | 1022.5 hPa | 0 mm | - | - | - |
| 1777533539 | 23.89° C | 99% | 1022.6 hPa | 0 mm | - | - | - |
| 1777531720 | 23.89° C | 98% | 1022.4 hPa | 0 mm | - | - | - |
| 1777528719 | 23.89° C | 97% | 1022.3 hPa | 0 mm | - | - | - |
| 1777526920 | 23.89° C | 97% | 1022.2 hPa | 0 mm | - | - | - |
| 1777526319 | 23.89° C | 97% | 1022.1 hPa | 0 mm | - | - | - |
| 1777523320 | 24.44° C | 96% | 1022 hPa | 0 mm | - | - | - |
| 1777522720 | 24.44° C | 96% | 1022 hPa | 0 mm | - | - | - |
| 1777520920 | 25° C | 95% | 1021.6 hPa | 0 mm | - | - | - |
| 1777519720 | 25.56° C | 93% | 1021.7 hPa | 0 mm | - | - | - |
| 1777519120 | 25.56° C | 92% | 1021.6 hPa | 0 mm | - | - | - |
| 1777513122 | 26.67° C | 91% | 1021.7 hPa | 0 mm | - | - | - |
| 1777510720 | 26.67° C | 91% | 1021.9 hPa | 0 mm | - | - | - |
| 1777510121 | 26.67° C | 91% | 1021.9 hPa | 0 mm | - | - | - |
| 1777508921 | 26.67° C | 90% | 1022 hPa | 0 mm | - | - | - |
| 1777505921 | 26.67° C | 91% | 1022.4 hPa | 0 mm | - | - | - |
| 1777502321 | 27.22° C | 92% | 1023.2 hPa | 0 mm | - | - | - |
* Rain latest hour (hover to see other rain measurements)
** Current wind speed in m/s (hover to see current wind gust speed)